星链-3852 (STARLINK-3852 )

导读 | 豆包AI

STARLINK-3852是美国SpaceX公司星链星座第4-16组的组网卫星,于2022年4月29日由猎鹰9号火箭发射升空。这颗互联网通信卫星重297千克,运行在约548千米高度的近地轨道,采用氪工质霍尔推进器,支持自主避撞,旨在为全球提供宽带互联网服务,设计寿命约5-7年,末期会主动离轨在大气层烧毁。

基本信息
目录编号:
52345
目录名称:
STARLINK-3852
国际标识:
2022-045Q
轨道中心:
EARTH
卫星名称:
星链-3852
卫星全名:
星链-3852 (STARLINK-3852 )
卫星状态:
在轨 (已飞行1462 天)
发射日期:
2022-04-29 UTC
国别 :
美国 (US)
星等 :
--
轨道信息
数据来源 国际轨道数据
星历时间: 2026-04-30T20:59:16+0800
8小时前
查看轨道信息
半长轴: 6917.891km
偏心率: 0.0001679
轨道倾角: 53.218°
近地点辐角 90.513°
升交点赤经 326.517°
平近点角 269.605°
近地点: 538.592km
远地点: 540.916km
周期: 95.438分钟
每日圈数: 15.088366
详细信息
固有亮度:
5
最大亮度:
2.5
卫星平台:
Starlink v1.5
覆盖范围:
全球
运营商:
太空探索技术公司
运营商所在国:
美国
制造商(研发单位):
太空探索技术公司
制造商所在国:
美国
使用方式:
暂无
卫星简介
星链(Starlink)计划是由太空探索技术公司(SpaceX)提出的一个巨型低轨卫星互联网星座项目,计划在2019年至2024年间在太空搭建由约1.2万颗卫星组成的“星链”网络,其中1584颗将部署在地球上空550千米处的近地轨道,并从2020年开始工作。该卫星仍在工作。
2D轨道图
3D轨道图
轨道高度分析图
轨道倾角分析图
轨道综合分析图
查看轨道综合分析图